Location: London
(42.9830°N, 81.2500°W)
Time: 21:40:01
(UTC-05:00)

Amateur Radio Satellites - All Passes

Search period start: 26 November 2014 21:10
Search period end: 27 November 2014 21:10
Location: London, 42.9830°N, 81.2500°W

Satellite Date Start Highest point End Downlink Frequencies (MHz)
Time Altitude Azimuth
CINEMA 3 26 Nov 21:11:41 21:16:02 70° 75° (ENE) 21:20:16 145.822/145.860
ZACube-1 26 Nov 21:13:18 21:17:04 33° 70° (ENE) 21:20:48 437.345
CUTE 1.7 + AOD 2 26 Nov 21:14:50 21:18:39 33° 263° (W) 21:22:30 437.475
AIST 2 26 Nov 21:17:00 21:21:13 67° 306° (NW) 21:25:31 435.215
VELOX 1 26 Nov 21:17:27 21:21:10 26° 67° (ENE) 21:24:54 145.980
ESTCUBE 1 26 Nov 21:21:12 21:22:56 12° 60° (ENE) 21:24:41 437.505/2401.250
GOMX 1 26 Nov 21:27:19 21:31:44 38° 262° (W) 21:35:55 467.674
UKube-1 26 Nov 21:43:14 21:47:29 54° 259° (W) 21:51:47 .
AISAT 26 Nov 21:43:31 21:47:50 49° 72° (ENE) 21:52:09 437.250
FUNcube-1 26 Nov 21:47:37 21:51:49 80° 76° (ENE) 21:56:00 145.935
SEEDS 26 Nov 21:48:03 21:50:52 17° 268° (W) 21:53:43 437.485
CUBEBUG 1 26 Nov 21:54:15 21:57:46 24° 66° (ENE) 22:01:18 437.445
Oscar 11 26 Nov 21:54:17 21:58:17 37° 262° (W) 22:02:18 145.826/435.025
TIGRISAT 26 Nov 21:58:29 22:00:39 13° 91° (E) 22:02:50 435.000
BRITE-PL 26 Nov 22:02:15 22:04:52 14° 269° (W) 22:07:25 437.365/2234.400
DELFI C3 26 Nov 22:03:06 22:06:47 33° 263° (W) 22:10:31 145.870
BEESAT 3 26 Nov 22:03:26 22:05:57 15° 321° (NW) 22:08:28 437.485
AAUSAT CUBESAT 2 26 Nov 22:03:32 22:06:04 16° 269° (W) 22:08:37 437.432
50 SAT 26 Nov 22:09:03 22:13:03 70° 75° (ENE) 22:17:05 437.505
UNISAT 6 26 Nov 22:11:46 22:14:58 19° 93° (E) 22:18:11 437.425
POPSAT HIP 1 26 Nov 22:15:30 22:17:27 13° 90° (E) 22:19:24 437.405
UWE-3 26 Nov 22:16:11 22:20:11 41° 262° (W) 22:24:09 435.000/436.395/437.385
CUBEBUG 2 26 Nov 22:17:54 22:21:47 34° 263° (W) 22:25:37 437.445
BEESAT 2 26 Nov 22:20:19 22:22:16 13° 324° (NW) 22:24:14 435.950
DX 1 26 Nov 22:20:45 22:24:09 22° 266° (W) 22:27:34 434.975-435.025
DOVE 4 26 Nov 22:21:31 22:24:01 15° 268° (W) 22:26:27 437.250
PCSat 26 Nov 22:23:32 22:25:28 12° 328° (NNW) 22:27:24 145.827
HUMSAT D 26 Nov 22:25:55 22:30:00 62° 259° (W) 22:34:06 437.325/437.525
CUSAT 1 26 Nov 22:34:55 22:37:35 15° 71° (ENE) 22:40:37 437.405
HO-68 26 Nov 22:36:43 22:39:12 12° 274° (W) 22:41:42 435.675
ANTELSAT 26 Nov 22:39:54 22:44:03 37° 98° (E) 22:48:16 437.575/2403.000
ISS 26 Nov 22:43:06 22:45:35 20° 134° (SE) 22:48:06 145.825
POLYITAN 1 26 Nov 22:48:08 22:51:53 30° 96° (E) 22:55:37 437.675
QB50P2 26 Nov 22:49:47 22:53:34 31° 97° (E) 22:57:21 145.880/145.840
ZACube-1 26 Nov 22:50:18 22:53:31 21° 266° (W) 22:56:43 437.345
CINEMA 3 26 Nov 22:52:53 22:53:41 10° 270° (W) 22:54:30 145.822/145.860
VELOX 1 26 Nov 22:53:40 22:57:39 31° 263° (W) 23:01:39 145.980
ESTCUBE 1 26 Nov 22:54:36 22:59:09 80° 257° (WSW) 23:03:45 437.505/2401.250
DUCHIFAT 1 26 Nov 22:55:11 22:59:04 35° 97° (E) 23:02:55 145.980
AIST 2 26 Nov 22:59:03 23:00:42 12° 326° (NW) 23:02:21 435.215
TISAT 1 26 Nov 23:01:52 23:05:37 31° 69° (ENE) 23:09:22 437.305
RS-15 26 Nov 23:02:14 23:12:04 34° 30° (NNE) 23:22:10 29.354- 29.394
DANDE 26 Nov 23:03:43 23:07:16 22° 75° (ENE) 23:11:37 436.750
M-CUBED/EXP-1 PRIME 26 Nov 23:04:53 23:06:33 12° 53° (NE) 23:08:16 437.505
SPROUT 26 Nov 23:14:13 23:18:10 36° 70° (ENE) 23:22:08 437.525
NANOSAT C BR1 26 Nov 23:14:33 23:18:44 59° 101° (E) 23:22:53 145.865
AISAT 26 Nov 23:21:53 23:24:44 17° 268° (W) 23:27:36 437.250
QB50P1 26 Nov 23:24:33 23:28:47 77° 102° (ESE) 23:33:00 145.935-145.965
CUBEBUG 1 26 Nov 23:29:54 23:33:58 35° 263° (W) 23:38:03 437.445
BUGSAT 1 26 Nov 23:30:36 23:34:42 74° 102° (ESE) 23:38:44 437.445
TIGRISAT 26 Nov 23:33:24 23:37:46 61° 286° (WNW) 23:42:14 435.000
UNISAT 6 26 Nov 23:47:43 23:51:56 43° 289° (WNW) 23:56:13 437.425
POPSAT HIP 1 26 Nov 23:49:35 23:53:43 56° 287° (WNW) 23:57:50 437.405
MaSat-1 27 Nov 00:07:31 00:09:33 26° 59° (ENE) 00:11:37 437.345
ITUPSAT 1 27 Nov 00:13:25 00:17:33 29° 67° (ENE) 00:21:43 437.325
CUSAT 1 27 Nov 00:16:05 00:20:47 72° 261° (W) 00:27:06 437.405
ANTELSAT 27 Nov 00:17:11 00:20:40 23° 294° (WNW) 00:24:11 437.575/2403.000
ISS 27 Nov 00:18:46 00:22:00 54° 331° (NNW) 00:25:14 145.825
SWISSCUBE 27 Nov 00:23:36 00:28:03 40° 69° (ENE) 00:32:33 437.505
POLYITAN 1 27 Nov 00:24:17 00:27:43 24° 293° (WNW) 00:31:09 437.675
QB50P2 27 Nov 00:25:59 00:29:21 24° 293° (WNW) 00:32:43 145.880/145.840
AUBIESAT-1 27 Nov 00:30:47 00:34:53 77° 70° (ENE) 00:39:24 437.475
DUCHIFAT 1 27 Nov 00:31:33 00:34:44 21° 294° (WNW) 00:37:54 145.980
M-CUBED/EXP-1 PRIME 27 Nov 00:36:44 00:40:49 85° 252° (WSW) 00:45:20 437.505
TISAT 1 27 Nov 00:38:00 00:41:28 24° 265° (W) 00:44:58 437.305
DANDE 27 Nov 00:46:21 00:50:43 44° 263° (W) 00:56:31 436.750
SPROUT 27 Nov 00:51:05 00:54:22 21° 266° (W) 00:57:39 437.525
NANOSAT C BR1 27 Nov 00:52:01 00:54:08 14° 298° (WNW) 00:56:16 145.865
BEESAT 27 Nov 00:54:05 00:58:52 73° 74° (ENE) 01:03:40 436.000
QB50P1 27 Nov 01:02:58 01:04:04 11° 300° (WNW) 01:05:10 145.935-145.965
Oscar 19 27 Nov 01:06:11 01:10:16 23° 94° (E) 01:14:21 437.125/150
KKS-1 27 Nov 01:06:33 01:09:53 21° 65° (ENE) 01:13:14 437.445
BUGSAT 1 27 Nov 01:08:44 01:09:36 11° 300° (WNW) 01:10:28 437.445
RS-15 27 Nov 01:14:49 01:26:06 88° 57° (ENE) 01:37:53 29.354- 29.394
ITUPSAT 1 27 Nov 01:51:04 01:55:22 32° 264° (W) 01:59:42 437.325
ISS 27 Nov 01:56:40 01:59:10 20° 351° (N) 02:01:40 145.825
STARS 27 Nov 01:59:09 02:03:23 49° 72° (ENE) 02:07:38 437.465
ITAMSAT 1 27 Nov 02:01:13 02:05:42 29° 95° (E) 02:10:08 435.822/435.867
SWISSCUBE 27 Nov 02:02:14 02:06:03 23° 266° (W) 02:09:53 437.505
AUBIESAT-1 27 Nov 02:10:07 02:10:33 10° 269° (W) 02:11:00 437.475
YUBILEINY 27 Nov 02:12:08 02:20:29 50° 89° (E) 02:28:49 435.215
BEESAT 27 Nov 02:35:14 02:37:14 12° 271° (W) 02:39:14 436.000
Gurwin Techsat 1B 27 Nov 02:39:01 02:43:58 38° 97° (E) 02:48:53 435.225
KKS-1 27 Nov 02:42:07 02:46:17 39° 262° (W) 02:50:29 437.445
Oscar 19 27 Nov 02:44:54 02:49:48 45° 290° (WNW) 02:54:42 437.125/150
SO-50 27 Nov 03:04:35 03:08:24 27° 113° (ESE) 03:12:19 436.795
BEESAT 3 27 Nov 03:06:06 03:07:26 11° 34° (NE) 03:08:45 437.485
AO-7 27 Nov 03:21:43 03:27:42 21° 91° (E) 03:33:38 29.400- 29.500
BEESAT 2 27 Nov 03:21:48 03:23:58 14° 37° (NE) 03:26:08 435.950
RS-15 27 Nov 03:28:39 03:37:06 25° 258° (WSW) 03:45:51 29.354- 29.394
ISS 27 Nov 03:34:05 03:36:39 21° 11° (N) 03:39:13 145.825
STARS 27 Nov 03:37:25 03:40:09 16° 268° (W) 03:42:53 437.465
PCSat 27 Nov 03:39:26 03:44:02 27° 46° (NE) 03:48:37 145.827
ITAMSAT 1 27 Nov 03:40:30 03:45:13 36° 293° (WNW) 03:49:54 435.822/435.867
HORYU 2 27 Nov 03:49:47 03:54:19 84° 103° (ESE) 03:58:49 437.375
MOZHAYETS 4 27 Nov 03:54:15 03:58:22 34° 69° (ENE) 04:02:32
AIST 2 27 Nov 04:00:42 04:03:28 16° 39° (NE) 04:06:12 435.215
YUBILEINY 27 Nov 04:09:28 04:17:29 38° 289° (WNW) 04:25:31 435.215
Gurwin Techsat 1B 27 Nov 04:19:16 04:23:47 29° 295° (WNW) 04:28:17 435.225
BEESAT 3 27 Nov 04:42:19 04:46:30 64° 54° (NE) 04:50:37 437.485
PRISM 27 Nov 04:42:59 04:46:10 21° 65° (ENE) 04:49:22 437.425
SO-50 27 Nov 04:44:33 04:48:47 38° 312° (NW) 04:53:10 436.795
BEESAT 2 27 Nov 04:58:41 05:02:56 85° 56° (ENE) 05:07:06 435.950
STRAND 1 27 Nov 05:00:47 05:03:51 16° 60° (ENE) 05:06:56 437.568
ISS 27 Nov 05:10:29 05:13:46 63° 30° (NNE) 05:17:02 145.825
AO-7 27 Nov 05:12:59 05:21:23 84° 290° (WNW) 05:29:46 29.400- 29.500
PCSat 27 Nov 05:22:28 05:27:44 52° 246° (WSW) 05:32:57 145.827
JAS-2 27 Nov 05:28:37 05:35:36 59° 99° (E) 05:41:43 435.910
HORYU 2 27 Nov 05:28:55 05:30:19 11° 301° (WNW) 05:31:43 437.375
CUTE-I 27 Nov 05:31:09 05:34:00 15° 89° (E) 05:36:50 437.470
MOZHAYETS 4 27 Nov 05:31:50 05:35:38 25° 266° (W) 05:39:29
AIST 2 27 Nov 05:38:19 05:42:38 77° 238° (WSW) 05:46:53 435.215
CUBESAT XI-V 27 Nov 05:38:54 05:43:03 32° 68° (ENE) 05:47:14 437.345
O/OREOS (USA 219) 27 Nov 05:52:24 05:56:48 58° 109° (ESE) 06:01:13 437.305
PRISM 27 Nov 06:17:37 06:21:29 36° 262° (W) 06:25:25 437.425
BEESAT 3 27 Nov 06:22:14 06:24:12 13° 251° (WSW) 06:26:08 437.485
Cubesat XI-IV 27 Nov 06:28:19 06:33:29 49° 100° (E) 06:38:37 437.490
STRAND 1 27 Nov 06:37:19 06:42:27 72° 257° (WSW) 06:47:36 437.568
AIST 1 27 Nov 06:39:24 06:43:43 54° 79° (E) 06:47:57
ISS 27 Nov 06:47:53 06:50:06 17° 227° (SW) 06:52:19 145.825
AO-7 27 Nov 07:07:11 07:13:02 22° 310° (NW) 07:18:53 29.400- 29.500
CUTE-I 27 Nov 07:09:19 07:14:38 74° 287° (WNW) 07:19:54 437.470
JAS-2 27 Nov 07:14:18 07:20:05 28° 301° (WNW) 07:25:21 435.910
CUBESAT XI-V 27 Nov 07:16:25 07:20:28 28° 265° (W) 07:24:34 437.345
O/OREOS (USA 219) 27 Nov 07:33:43 07:36:36 17° 308° (NW) 07:39:30 437.305
GONETS M04 27 Nov 08:02:17 08:10:46 56° 90° (E) 08:19:19
Cubesat XI-IV 27 Nov 08:09:07 08:13:15 23° 297° (WNW) 08:17:21 437.490
HO-68 27 Nov 08:11:02 08:16:13 21° 91° (E) 08:21:21 435.675
AIST 1 27 Nov 08:18:47 08:20:51 13° 276° (W) 08:22:55
CANX-2 27 Nov 08:25:28 08:28:25 18° 92° (E) 08:31:22 2200.000
BRITE-PL 27 Nov 08:26:17 08:28:44 15° 92° (E) 08:31:13 437.365/2234.400
COMPASS 1 27 Nov 08:27:03 08:28:46 12° 90° (E) 08:30:28 437.405
DOVE 4 27 Nov 08:41:32 08:43:12 12° 90° (E) 08:44:53 437.250
CUTE-I 27 Nov 08:52:24 08:53:45 11° 305° (NW) 08:55:06 437.470
CUTE 1.7 + AOD 2 27 Nov 08:59:09 09:03:09 37° 97° (E) 09:07:09 437.475
TIGRISAT 27 Nov 08:59:17 09:01:21 14° 62° (ENE) 09:03:26 435.000
CINEMA 3 27 Nov 09:07:01 09:09:23 14° 92° (E) 09:11:45 145.822/145.860
POPSAT HIP 1 27 Nov 09:10:25 09:12:15 13° 62° (ENE) 09:14:05 437.405
UNISAT 6 27 Nov 09:12:39 09:15:39 19° 65° (ENE) 09:18:38 437.425
GOMX 1 27 Nov 09:27:46 09:31:51 52° 100° (E) 09:36:02 467.674
SEEDS 27 Nov 09:30:16 09:34:33 73° 102° (ESE) 09:38:49 437.485
UKube-1 27 Nov 09:30:51 09:34:19 23° 95° (E) 09:37:46 .
FUNcube-1 27 Nov 09:36:51 09:39:07 14° 91° (E) 09:41:23 145.935
ANTELSAT 27 Nov 09:40:30 09:44:23 36° 70° (ENE) 09:48:18 437.575/2403.000
Oscar 11 27 Nov 09:40:41 09:44:41 35° 97° (E) 09:48:41 145.826/435.025
POLYITAN 1 27 Nov 09:42:47 09:46:23 27° 68° (ENE) 09:49:58 437.675
DELFI C3 27 Nov 09:42:58 09:46:40 31° 96° (E) 09:50:22 145.870
QB50P2 27 Nov 09:44:11 09:47:49 28° 68° (ENE) 09:51:27 145.880/145.840
AAUSAT CUBESAT 2 27 Nov 09:44:20 09:48:36 78° 102° (ESE) 09:52:50 437.432
DUCHIFAT 1 27 Nov 09:49:11 09:52:55 31° 69° (ENE) 09:56:39 145.980
HO-68 27 Nov 09:57:25 10:04:36 75° 289° (WNW) 10:11:43 435.675
GONETS M04 27 Nov 10:00:09 10:07:58 35° 291° (WNW) 10:15:53
CANX-2 27 Nov 10:00:30 10:04:33 42° 288° (WNW) 10:08:36 2200.000
COMPASS 1 27 Nov 10:00:41 10:04:53 61° 286° (WNW) 10:09:05 437.405
BRITE-PL 27 Nov 10:03:36 10:07:32 43° 288° (WNW) 10:11:31 437.365/2234.400
UWE-3 27 Nov 10:05:10 10:09:03 33° 97° (E) 10:12:59 435.000/436.395/437.385
DX 1 27 Nov 10:07:14 10:11:32 58° 101° (E) 10:15:48 434.975-435.025
CUBEBUG 2 27 Nov 10:07:44 10:11:46 41° 98° (E) 10:15:54 437.445
NANOSAT C BR1 27 Nov 10:08:24 10:12:30 50° 72° (ENE) 10:16:37 145.865
HUMSAT D 27 Nov 10:10:27 10:13:32 20° 93° (E) 10:16:37 437.325/437.525
DOVE 4 27 Nov 10:17:14 10:21:21 58° 286° (WNW) 10:25:34 437.250
QB50P1 27 Nov 10:18:23 10:22:36 65° 74° (ENE) 10:26:49 145.935-145.965
BUGSAT 1 27 Nov 10:21:37 10:25:48 59° 74° (ENE) 10:29:57 437.445
TIGRISAT 27 Nov 10:33:26 10:37:38 60° 259° (W) 10:41:51 435.000
CUTE 1.7 + AOD 2 27 Nov 10:35:39 10:38:51 21° 294° (WNW) 10:42:03 437.475
ZACube-1 27 Nov 10:36:53 10:41:07 65° 101° (E) 10:45:24 437.345
CINEMA 3 27 Nov 10:42:46 10:46:52 51° 287° (WNW) 10:51:05 145.822/145.860
VELOX 1 27 Nov 10:43:16 10:47:32 45° 99° (E) 10:51:45 145.980
POPSAT HIP 1 27 Nov 10:43:23 10:47:37 67° 258° (WSW) 10:51:52 437.405
ESTCUBE 1 27 Nov 10:47:35 10:50:58 20° 93° (E) 10:54:19 437.505/2401.250
UNISAT 6 27 Nov 10:48:08 10:52:10 41° 262° (W) 10:56:13 437.425
UKube-1 27 Nov 11:06:39 11:10:32 33° 291° (WNW) 11:14:25 .
GOMX 1 27 Nov 11:07:22 11:09:37 14° 296° (WNW) 11:11:53 467.674
SEEDS 27 Nov 11:08:17 11:09:48 12° 299° (WNW) 11:11:19 437.485
AISAT 27 Nov 11:10:20 11:14:47 90° 333° (NNW) 11:19:12 437.250
FUNcube-1 27 Nov 11:11:39 11:15:46 53° 287° (WNW) 11:19:58 145.935
Oscar 11 27 Nov 11:17:17 11:20:40 22° 294° (WNW) 11:24:02 145.826/435.025
CUBEBUG 1 27 Nov 11:18:01 11:22:07 39° 98° (E) 11:26:10 437.445
ANTELSAT 27 Nov 11:18:09 11:21:20 20° 267° (W) 11:24:31 437.575/2403.000
DELFI C3 27 Nov 11:18:34 11:21:50 23° 293° (WNW) 11:25:05 145.870
POLYITAN 1 27 Nov 11:18:38 11:22:17 27° 264° (W) 11:25:55 437.675
QB50P2 27 Nov 11:20:06 11:23:42 26° 265° (W) 11:27:19 145.880/145.840
AAUSAT CUBESAT 2 27 Nov 11:22:37 11:23:39 11° 299° (WNW) 11:24:41 437.432
50 SAT 27 Nov 11:24:21 11:28:25 73° 285° (WNW) 11:32:30 437.505
DUCHIFAT 1 27 Nov 11:25:22 11:28:49 24° 265° (W) 11:32:16 145.980
SO-50 27 Nov 11:34:31 11:39:02 37° 47° (NE) 11:43:34 436.795
UWE-3 27 Nov 11:42:07 11:45:26 23° 293° (WNW) 11:48:48 435.000/436.395/437.385
DX 1 27 Nov 11:44:54 11:47:18 15° 298° (WNW) 11:49:42 434.975-435.025
CUBEBUG 2 27 Nov 11:45:15 11:48:14 19° 294° (WNW) 11:51:15 437.445
HUMSAT D 27 Nov 11:45:38 11:49:27 36° 289° (WNW) 11:53:19 437.325/437.525
NANOSAT C BR1 27 Nov 11:46:16 11:48:41 15° 269° (W) 11:51:06 145.865
HO-68 27 Nov 11:47:03 11:51:08 16° 309° (NW) 11:55:13 435.675
QB50P1 27 Nov 11:57:33 11:58:55 11° 270° (W) 12:00:17 145.935-145.965
BUGSAT 1 27 Nov 11:59:46 12:01:39 13° 269° (W) 12:03:32 437.445
ZACube-1 27 Nov 12:15:05 12:17:00 13° 298° (WNW) 12:18:56 437.345
VELOX 1 27 Nov 12:20:43 12:23:48 19° 296° (WNW) 12:26:51 145.980
TISAT 1 27 Nov 12:21:27 12:25:33 49° 100° (E) 12:29:37 437.305
YUBILEINY 27 Nov 12:21:28 12:28:27 26° 65° (ENE) 12:35:21 435.215
DANDE 27 Nov 12:23:33 12:24:21 11° 92° (E) 12:25:09 436.750
ESTCUBE 1 27 Nov 12:23:45 12:28:01 41° 290° (WNW) 12:32:14 437.505/2401.250
Oscar 19 27 Nov 12:23:50 12:28:29 37° 68° (ENE) 12:33:10 437.125/150
SPROUT 27 Nov 12:35:52 12:40:08 64° 101° (E) 12:44:22 437.525
AISAT 27 Nov 12:50:16 12:50:42 10° 301° (WNW) 12:51:08 437.250
BEESAT 27 Nov 12:54:48 12:58:01 18° 92° (E) 13:01:13 436.000
CUBEBUG 1 27 Nov 12:55:00 12:58:14 21° 295° (WNW) 13:01:27 437.445
SO-50 27 Nov 13:15:11 13:19:32 33° 245° (WSW) 13:23:53 436.795
ITAMSAT 1 27 Nov 13:19:55 13:24:55 49° 70° (ENE) 13:29:55 435.822/435.867
CUSAT 1 27 Nov 13:32:12 13:34:39 34° 284° (WNW) 13:37:06 437.405
PHONESAT 2.4 27 Nov 13:32:55 13:34:24 12° 147° (SSE) 13:35:53 2401.200-2431.200
VERMONT LUNAR 27 Nov 13:36:38 13:39:00 17° 151° (SSE) 13:41:22 437.305
AUBIESAT-1 27 Nov 13:47:22 13:52:15 59° 105° (ESE) 13:56:58 437.475
ITUPSAT 1 27 Nov 13:50:19 13:55:06 61° 101° (ESE) 13:59:50 437.325
M-CUBED/EXP-1 PRIME 27 Nov 13:53:41 13:58:39 75° 107° (ESE) 14:03:28 437.505
TISAT 1 27 Nov 13:58:26 14:01:00 16° 297° (WNW) 14:03:34 437.305
SWISSCUBE 27 Nov 14:00:37 14:05:28 85° 104° (ESE) 14:10:15 437.505
Gurwin Techsat 1B 27 Nov 14:00:55 14:06:10 66° 73° (ENE) 14:11:27 435.225
Oscar 19 27 Nov 14:03:32 14:07:53 28° 265° (W) 14:12:16 437.125/150
DANDE 27 Nov 14:06:02 14:07:40 15° 288° (WNW) 14:09:17 436.750
SPROUT 27 Nov 14:13:42 14:15:43 13° 298° (WNW) 14:17:44 437.525
YUBILEINY 27 Nov 14:17:26 14:26:07 73° 266° (W) 14:34:43 435.215
AO-7 27 Nov 14:21:35 14:28:45 34° 57° (ENE) 14:35:57 29.400- 29.500
O/OREOS (USA 219) 27 Nov 14:23:17 14:26:03 16° 52° (NE) 14:28:49 437.305
BEESAT 27 Nov 14:31:30 14:36:10 52° 289° (WNW) 14:40:47 436.000
KKS-1 27 Nov 14:32:26 14:36:32 36° 98° (E) 14:40:36 437.445
HORYU 2 27 Nov 14:49:13 14:53:38 86° 76° (ENE) 14:58:07 437.375
ITAMSAT 1 27 Nov 15:00:40 15:04:38 22° 267° (W) 15:08:38 435.822/435.867
PHONESAT 2.4 27 Nov 15:09:07 15:12:34 37° 163° (SSE) 15:16:02 2401.200-2431.200
MaSat-1 27 Nov 15:10:01 15:12:57 85° 296° (WNW) 15:15:38 437.345
VERMONT LUNAR 27 Nov 15:13:31 15:16:59 45° 167° (SSE) 15:20:28 437.305
AUBIESAT-1 27 Nov 15:23:17 15:26:46 20° 303° (WNW) 15:30:12 437.475
STARS 27 Nov 15:24:36 15:29:01 88° 101° (ESE) 15:33:25 437.465
ITUPSAT 1 27 Nov 15:29:30 15:32:30 17° 299° (WNW) 15:35:29 437.325
M-CUBED/EXP-1 PRIME 27 Nov 15:30:03 15:33:05 17° 304° (NW) 15:36:05 437.505
RS-15 27 Nov 15:39:24 15:49:50 53° 112° (ESE) 16:00:14 29.354- 29.394
JAS-2 27 Nov 15:40:06 15:46:51 34° 62° (ENE) 15:53:40 435.910
SWISSCUBE 27 Nov 15:40:42 15:42:37 12° 301° (WNW) 15:44:31 437.505
Gurwin Techsat 1B 27 Nov 15:43:20 15:46:36 16° 270° (W) 15:49:52 435.225
O/OREOS (USA 219) 27 Nov 16:01:27 16:05:53 62° 250° (WSW) 16:10:18 437.305
KKS-1 27 Nov 16:09:30 16:12:59 23° 294° (WNW) 16:16:27 437.445
AO-7 27 Nov 16:12:56 16:21:05 61° 257° (WSW) 16:29:20 29.400- 29.500
Cubesat XI-IV 27 Nov 16:14:50 16:17:20 13° 57° (ENE) 16:19:49 437.490
YUBILEINY 27 Nov 16:17:26 16:21:14 14° 287° (WNW) 16:25:02 435.215
PHONESAT 2.4 27 Nov 16:47:27 16:51:07 59° 180° (S) 16:54:48 2401.200-2431.200
VERMONT LUNAR 27 Nov 16:51:41 16:55:16 57° 184° (S) 16:58:50 437.305
CUTE-I 27 Nov 16:53:19 16:57:48 28° 65° (ENE) 17:02:16 437.470
STARS 27 Nov 17:04:13 17:04:48 10° 301° (WNW) 17:05:24 437.465
JAS-2 27 Nov 17:23:53 17:31:25 58° 261° (W) 17:39:11 435.910
MOZHAYETS 4 27 Nov 17:25:11 17:29:52 72° 102° (ESE) 17:34:30
Cubesat XI-IV 27 Nov 17:51:15 17:56:37 88° 75° (ENE) 18:02:01 437.490
RS-15 27 Nov 17:51:42 18:02:14 51° 316° (NW) 18:12:55 29.354- 29.394
PRISM 27 Nov 18:00:02 18:03:45 29° 96° (E) 18:07:26 437.425
GONETS M04 27 Nov 18:11:44 18:19:10 29° 66° (ENE) 18:26:30
PCSat 27 Nov 18:23:44 18:27:14 18° 105° (ESE) 18:30:43 145.827
PHONESAT 2.4 27 Nov 18:26:12 18:29:41 38° 197° (SSW) 18:33:09 2401.200-2431.200
VERMONT LUNAR 27 Nov 18:30:14 18:33:26 29° 201° (SSW) 18:36:38 437.305
CUTE-I 27 Nov 18:32:38 18:37:40 41° 262° (W) 18:42:44 437.470
HO-68 27 Nov 18:41:49 18:46:38 20° 53° (NE) 18:51:27 435.675
STRAND 1 27 Nov 18:47:16 18:51:57 36° 97° (E) 18:56:36 437.568
BEESAT 2 27 Nov 18:57:20 18:59:18 13° 109° (ESE) 19:01:17 435.950
MOZHAYETS 4 27 Nov 19:04:12 19:06:30 14° 299° (WNW) 19:08:47
AIST 1 27 Nov 19:10:12 19:14:05 31° 90° (E) 19:17:59
CUBESAT XI-V 27 Nov 19:11:39 19:16:20 69° 101° (ESE) 19:20:56 437.345
JAS-2 27 Nov 19:17:51 19:17:58 10° 280° (W) 19:18:05 435.910
CANX-2 27 Nov 19:20:29 19:22:58 16° 64° (ENE) 19:25:28 2200.000
COMPASS 1 27 Nov 19:21:28 19:22:14 10° 61° (ENE) 19:23:00 437.405
Cubesat XI-IV 27 Nov 19:35:28 19:37:24 12° 272° (W) 19:39:21 437.490
PRISM 27 Nov 19:35:42 19:39:12 26° 293° (WNW) 19:42:41 437.425
BRITE-PL 27 Nov 19:37:41 19:41:33 24° 68° (ENE) 19:45:12 437.365/2234.400
AIST 2 27 Nov 19:38:52 19:41:48 18° 111° (ESE) 19:44:45 435.215
DOVE 4 27 Nov 19:48:20 19:51:02 16° 65° (ENE) 19:53:41 437.250
CUTE 1.7 + AOD 2 27 Nov 19:53:27 19:57:08 31° 69° (ENE) 20:00:52 437.475
PCSat 27 Nov 20:04:40 20:10:03 68° 302° (WNW) 20:15:29 145.827
PHONESAT 2.4 27 Nov 20:06:10 20:07:52 13° 212° (SSW) 20:09:35 2401.200-2431.200
GONETS M04 27 Nov 20:07:57 20:16:40 66° 268° (W) 20:25:18
RS-15 27 Nov 20:09:34 20:18:03 25° 348° (NNW) 20:26:42 29.354- 29.394
CINEMA 3 27 Nov 20:10:32 20:13:09 16° 65° (ENE) 20:15:44 145.822/145.860
BEESAT 3 27 Nov 20:15:54 20:20:01 84° 305° (NW) 20:24:12 437.485
SEEDS 27 Nov 20:23:35 20:27:41 57° 74° (ENE) 20:31:50 437.485
HO-68 27 Nov 20:26:12 20:33:24 89° 73° (ENE) 20:40:39 435.675
STRAND 1 27 Nov 20:26:39 20:31:01 29° 294° (WNW) 20:35:22 437.568
UKube-1 27 Nov 20:27:11 20:30:40 24° 66° (ENE) 20:34:08 .
BEESAT 2 27 Nov 20:32:58 20:37:03 63° 306° (NW) 20:41:14 435.950
DELFI C3 27 Nov 20:33:12 20:36:27 23° 67° (ENE) 20:39:43 145.870
FUNcube-1 27 Nov 20:34:56 20:36:55 13° 63° (ENE) 20:38:54 145.935
AAUSAT CUBESAT 2 27 Nov 20:36:35 20:40:40 59° 74° (ENE) 20:44:48 437.432
Oscar 11 27 Nov 20:36:39 20:40:26 31° 69° (ENE) 20:44:15 145.826/435.025
GOMX 1 27 Nov 20:36:47 20:41:28 66° 75° (ENE) 20:45:51 467.674
AISAT 27 Nov 20:36:58 20:37:53 11° 59° (ENE) 20:38:49 437.250
AIST 1 27 Nov 20:48:13 20:51:46 24° 288° (WNW) 20:55:22
CUBESAT XI-V 27 Nov 20:50:46 20:53:12 14° 299° (WNW) 20:55:37 437.345
COMPASS 1 27 Nov 20:53:10 20:57:20 79° 258° (WSW) 21:01:33 437.405
CANX-2 27 Nov 20:54:24 20:58:30 51° 261° (W) 21:02:39 2200.000
HUMSAT D 27 Nov 21:04:37 21:07:16 17° 65° (ENE) 21:09:54 437.325/437.525
